Location: Czekanka
(50.4925°N, 19.2643°E)
Time: 12:15:09
(UTC+00:00)

FENGYUN 1C DEB - Pass Details

Date: 25 November 2025
Orbit: 800 x 866 km, 98.6° (Epoch: 04 December)

Event Time Altitude Azimuth Distance (km) Brightness Sun altitude
Rises 03:29:38 0° 13° (NNE) 3,326 ? -25.4°
Reaches altitude 10° 03:31:59 10° 12° (NNE) 2,389 ? -25.0°
Maximum altitude 03:37:15 77° 288° (WNW) 826 ? -24.2°
Enters shadow 03:40:25 25° 205° (SSW) 1,586 ? -23.7°
